Theta_e
330 337 344 344 343 345 344 343 340 339 337 337 336 336 336 335 335 334 334 333 333 333 333 333 333 333 332 332 332 333 333 334 332 330 332 333 333 333 333 332 332 326 332
335 338 342 343 343 345 344 341 339 338 337 336 335 335 335 335 334 334 333 332 332 333 333 333 332 332 332 332 333 334 334 333 331 329 330 329 333 333 334 333 334 331 333
336 338 341 343 345 344 342 340 339 337 336 336 336 335 335 334 333 333 333 333 332 333 333 333 333 333 333 333 334 334 334 332 330 327 326 318 323 334 334 335 336 336 335
337 338 340 342 345 343 342 340 338 336 336 336 335 335 334 333 334 333 331 332 332 332 332 333 333 333 334 334 334 334 334 331 328 326 320 323 327 337 340 338 338 337 337
337 338 339 341 344 343 341 340 339 338 335 335 335 334 333 332 332 331 331 331 332 332 333 333 334 334 333 333 333 334 333 331 327 323 321 323 326 335 339 340 339 338 338
336 338 339 341 342 341 340 339 338 337 335 335 334 333 333 332 331 332 333 334 332 332 334 335 336 336 336 336 335 334 333 329 326 321 322 325 327 339 340 340 338 336 336
335 336 337 339 340 340 340 339 338 337 335 334 333 333 333 333 333 333 334 334 335 336 336 336 336 336 336 335 334 334 332 329 324 326 327 328 329 340 341 339 336 335 333
334 333 335 333 336 337 337 338 337 337 335 333 333 333 333 333 333 334 335 335 336 336 336 335 335 335 336 335 335 333 331 330 328 328 329 331 337 338 338 336 333 331 330
333 332 332 332 332 332 334 334 335 335 334 335 334 333 334 334 334 334 333 334 335 335 335 335 334 337 336 335 333 331 329 327 325 326 326 330 335 337 335 332 330 328 327
332 332 330 330 331 330 329 329 331 332 333 334 333 332 330 330 330 329 328 333 334 335 335 334 336 337 336 333 331 327 325 323 321 323 325 330 333 333 332 329 327 325 323
331 331 330 329 329 326 326 326 327 329 330 330 329 326 324 325 325 328 327 331 334 336 336 336 333 333 332 329 325 322 319 314 316 318 325 330 331 330 328 325 323 321 319
325 326 329 329 328 326 329 324 324 325 325 324 324 323 324 327 328 330 323 323 326 328 327 324 323 321 323 321 317 315 310 310 311 313 319 327 328 328 325 322 319 318 317
324 325 329 328 328 326 325 321 321 321 321 322 323 325 327 328 325 318 316 315 315 311 309 306 305 308 317 314 309 307 306 306 306 309 318 322 323 323 321 319 316 316 315
322 325 329 328 326 324 323 322 320 322 322 320 322 326 323 322 315 311 307 308 306 307 304 301 302 309 313 307 305 303 303 303 304 307 312 317 319 319 318 317 316 314 313
321 325 328 326 325 324 323 320 322 325 319 317 319 323 321 315 310 307 306 305 303 301 299 298 299 307 307 303 302 301 300 300 300 303 306 312 314 315 315 315 314 313 312
322 323 327 324 324 324 323 322 323 321 315 315 316 319 315 311 307 305 303 302 301 299 296 295 297 303 303 301 300 299 296 296 296 297 298 302 308 309 310 311 311 310 310
324 324 324 323 323 322 322 321 319 315 312 310 310 312 309 307 304 303 302 300 299 296 294 294 296 300 300 297 294 294 294 293 293 293 293 293 294 303 304 305 306 306 306
324 323 324 323 321 321 320 315 312 308 306 305 306 306 305 304 302 301 300 299 298 294 292 292 294 297 296 294 292 291 292 292 291 289 289 289 289 290 296 301 301 302 303
324 324 322 321 321 318 315 310 307 304 302 301 301 302 302 301 299 299 298 296 295 293 291 292 291 295 294 292 291 290 289 289 288 288 286 285 286 286 288 295 297 298 299
322 322 322 321 317 312 309 306 303 301 298 299 299 300 299 298 296 295 295 294 293 291 290 291 291 292 293 291 290 288 287 287 286 285 284 285 284 283 283 286 285 287 296
321 321 320 315 311 308 306 304 301 299 296 296 298 299 298 297 296 294 293 292 292 290 290 290 292 292 289 289 287 286 286 285 284 283 283 282 283 283 282 283 284 284 284
319 320 317 313 309 309 309 309 303 298 298 296 297 297 297 296 295 294 291 290 290 290 290 290 289 287 287 287 287 286 282 284 284 284 283 283 281 282 282 283 283 282 281
318 318 314 311 310 309 309 302 297 296 296 295 295 295 295 295 294 292 291 290 289 289 288 288 288 288 285 285 286 287 283 282 282 283 282 281 280 280 280 282 282 282 281
317 317 314 310 309 307 303 302 298 299 295 295 294 294 293 293 292 292 290 289 289 289 287 286 287 286 285 283 284 285 283 283 279 278 281 281 280 281 279 280 281 280 280
317 314 313 310 309 305 304 302 301 298 296 294 292 291 291 291 291 290 289 289 288 287 286 285 285 285 284 282 282 281 281 280 279 278 276 277 279 279 279 279 279 279 279
316 313 310 309 307 303 303 302 301 294 292 291 291 290 289 289 289 289 289 288 287 286 285 284 284 283 283 282 282 282 281 279 278 277 276 276 276 278 278 279 278 279 279
Wind_Speed
8 11 18 18 17 16 18 18 16 15 15 16 16 15 14 14 13 13 12 11 11 12 12 12 12 12 12 12 12 12 12 11 11 10 10 11 11 11 11 10 9 6 11
14 12 19 18 17 18 19 17 16 15 15 15 15 15 14 13 13 12 11 11 11 11 11 11 11 11 11 11 11 11 11 10 10 8 8 8 8 10 9 8 9 8 9
16 13 13 19 18 18 18 18 17 15 15 14 14 14 13 12 12 11 11 10 11 10 11 11 11 11 11 11 11 10 11 11 9 8 6 4 5 8 7 8 8 8 7
13 12 11 18 19 19 19 17 16 15 15 14 13 13 12 11 11 11 10 10 9 10 10 10 10 10 10 10 11 9 10 10 9 8 4 5 6 7 11 8 7 7 6
13 12 12 17 17 18 18 17 15 14 15 14 13 12 12 11 10 10 10 8 9 9 9 10 9 9 9 9 10 9 9 9 8 6 4 5 4 7 9 12 10 13 15
10 11 16 18 18 17 17 17 16 15 15 14 13 12 11 11 10 8 8 7 7 7 7 8 8 8 8 10 9 8 9 9 7 5 5 5 5 8 13 18 24 25 24
10 10 12 18 19 18 18 18 17 16 16 15 14 12 11 10 9 8 7 5 5 6 7 7 7 8 10 9 9 9 8 8 5 4 5 4 3 19 24 25 25 25 25
13 10 11 13 16 18 18 17 16 15 15 14 14 13 12 11 9 8 6 5 6 7 7 5 5 6 8 9 13 12 11 9 6 8 8 7 17 23 25 25 24 24 24
11 11 7 10 11 13 14 15 14 14 14 13 12 12 11 10 9 7 5 5 5 6 6 4 2 7 10 13 16 14 12 11 8 6 8 6 19 23 24 24 24 23 22
10 10 10 7 8 8 9 13 13 12 12 11 10 9 8 8 8 7 5 3 5 6 6 2 5 12 13 16 16 13 12 12 8 5 6 7 18 22 22 22 21 22 21
11 13 11 10 7 6 6 8 10 11 11 10 9 9 7 4 5 5 5 4 3 5 7 8 10 12 15 16 16 14 12 5 6 5 5 16 19 21 21 21 21 20 18
18 17 11 12 11 7 7 6 5 5 4 4 5 5 4 5 4 5 5 7 7 10 12 13 11 12 10 5 6 11 5 5 6 6 4 16 18 20 19 19 18 17 18
21 15 14 12 12 10 6 4 2 2 3 2 4 4 4 5 3 3 3 3 3 6 4 6 5 4 7 6 6 6 6 6 4 5 9 16 15 15 16 16 15 17 17
20 19 16 15 13 10 7 5 4 4 3 3 3 5 4 4 4 3 3 4 4 3 5 5 3 5 9 9 8 8 7 6 5 5 10 16 15 16 15 14 14 15 15
18 20 17 15 14 12 10 6 6 6 3 4 3 4 5 5 5 4 4 4 4 4 4 4 4 5 8 8 8 9 8 7 8 5 5 16 16 16 15 14 13 13 13
19 22 17 15 16 14 11 11 9 5 4 3 3 3 6 5 5 5 4 4 4 4 4 4 4 5 7 8 9 8 8 7 8 8 6 7 17 16 14 13 14 14 13
17 18 20 17 16 17 14 12 8 6 4 4 2 5 6 6 6 7 5 4 3 4 6 5 5 6 8 7 9 8 7 7 7 8 6 5 6 13 13 13 12 12 12
16 17 15 13 14 14 14 10 8 6 5 4 2 4 5 6 7 5 5 4 4 4 4 4 5 6 6 7 6 5 6 7 8 7 6 5 5 5 9 11 11 12 12
18 17 15 13 14 13 10 9 9 9 6 5 4 4 6 6 6 6 5 4 5 4 4 4 4 4 7 7 7 6 5 5 5 6 7 6 7 5 4 9 11 10 10
17 17 17 12 11 12 8 8 6 6 4 4 4 5 6 5 7 6 5 5 5 5 4 4 6 5 4 7 8 7 5 4 5 5 5 5 5 6 5 5 4 6 12
18 19 18 16 13 12 9 9 6 6 4 4 4 7 7 6 7 6 4 5 4 5 5 5 6 9 5 4 5 4 4 4 5 4 4 4 5 6 6 5 4 4 5
21 20 19 19 17 12 11 8 5 6 4 4 4 6 6 7 7 7 6 5 5 5 5 4 4 4 3 3 3 3 3 1 1 2 3 4 5 4 5 5 5 4 4
21 21 20 20 19 14 13 9 8 7 6 4 5 4 5 7 5 6 6 6 6 4 4 4 5 6 4 3 4 3 3 3 2 2 2 3 4 3 3 4 4 4 5
21 19 21 20 19 16 16 13 18 10 9 4 5 5 6 7 7 6 6 6 6 5 5 4 3 3 5 5 2 5 5 3 3 1 0 1 2 3 3 1 2 3 4
21 19 18 20 19 16 16 15 13 11 6 9 8 9 8 7 7 7 6 7 7 5 5 6 5 6 3 4 3 3 4 4 4 2 1 3 1 0 1 1 2 1 2
20 19 17 21 21 17 15 14 14 16 15 13 11 8 6 6 6 6 6 7 7 7 5 5 6 7 6 6 4 4 3 3 2 3 2 1 2 4 1 1 2 1 1
Wind_Direction
177 160 156 157 154 151 146 132 129 124 121 119 118 115 114 111 105 100 97 96 92 86 82 79 76 72 68 66 69 70 65 60 62 73 65 47 58 60 58 57 53 45 53
147 158 157 156 155 151 134 134 134 130 129 127 126 120 116 112 108 105 102 94 90 88 84 81 76 73 70 68 69 68 62 60 72 81 66 31 22 63 63 61 58 56 60
146 152 158 158 150 148 135 134 136 136 134 130 126 122 118 115 115 107 99 89 91 86 86 84 79 74 70 68 69 67 62 65 74 73 54 10 332 60 68 70 66 60 56
146 148 153 150 145 145 139 139 141 140 137 133 130 126 121 117 108 108 105 99 98 90 86 83 80 78 74 71 74 65 62 65 69 62 32 1 339 355 52 61 55 44 39
146 147 147 144 144 144 142 142 143 142 140 138 134 127 122 122 121 111 108 110 92 96 95 92 89 85 80 76 78 72 70 71 72 53 12 344 338 330 67 65 57 60 68
140 145 145 145 149 149 146 148 148 148 145 142 137 136 131 124 122 104 96 84 93 90 90 86 83 75 73 75 80 75 67 77 61 30 2 335 334 334 71 81 75 65 59
133 139 144 148 151 152 153 152 152 152 150 147 145 140 135 131 128 124 128 125 108 98 90 83 88 96 94 91 85 78 86 86 56 39 6 8 9 84 82 74 68 65 58
141 143 147 147 152 155 155 155 154 152 152 152 150 148 145 141 139 138 121 101 91 97 100 112 116 125 112 97 87 85 80 68 55 54 30 35 78 77 75 73 69 65 61
144 137 139 146 152 153 153 153 151 151 156 156 157 155 148 145 140 127 117 117 113 117 124 115 98 95 118 95 98 82 67 58 57 51 44 41 74 76 72 71 65 62 59
152 147 145 146 152 153 155 150 149 153 155 158 156 147 144 139 132 132 119 123 146 151 137 135 89 103 103 97 94 76 62 52 46 33 45 70 75 74 71 68 65 57 58
169 166 155 151 153 146 145 153 149 156 162 161 157 156 147 151 150 139 143 138 48 183 160 98 84 84 98 93 82 70 66 42 44 27 41 68 74 76 71 63 58 60 54
177 177 168 158 154 148 153 146 145 145 150 161 162 169 167 176 161 120 105 80 64 67 73 85 83 81 91 86 80 73 63 48 44 36 26 65 69 72 69 68 65 61 59
175 176 173 165 156 150 150 143 132 136 152 175 185 197 161 124 108 92 91 74 78 75 66 66 65 67 90 94 85 80 70 62 51 47 41 57 61 70 67 69 65 62 58
179 176 171 166 160 156 152 154 147 150 166 167 195 159 133 117 114 113 111 97 82 72 88 77 74 81 84 84 90 83 67 56 47 49 44 51 61 65 64 67 68 67 60
186 179 169 164 164 157 160 142 147 177 172 169 157 151 134 130 131 116 94 90 91 90 90 89 86 96 94 90 81 84 76 65 59 55 49 55 63 65 62 60 58 56 55
192 188 174 168 165 159 163 155 166 164 155 159 154 155 123 124 126 122 112 100 92 95 95 96 101 98 91 95 85 78 75 68 63 60 51 47 64 62 61 60 56 47 41
194 191 185 177 170 160 160 155 153 149 146 149 150 121 117 123 133 127 119 108 111 100 99 88 79 88 92 90 89 83 81 73 72 66 60 54 45 47 56 53 49 45 41
184 188 184 177 170 165 157 147 144 142 137 128 139 109 111 113 117 113 116 114 115 101 102 97 99 94 91 92 87 72 78 77 74 68 63 53 49 37 26 52 44 39 33
182 179 178 179 172 156 150 137 135 134 132 127 128 113 112 116 112 115 116 114 107 97 94 114 75 102 110 103 98 80 66 75 74 74 63 55 51 44 32 36 40 34 32
178 176 167 166 167 141 134 125 114 113 106 112 119 115 116 119 108 111 114 117 116 105 96 90 105 66 99 111 95 79 63 65 72 64 60 60 50 37 31 34 35 21 36
177 172 166 154 163 143 148 144 143 140 124 99 106 115 116 116 112 108 105 110 108 107 118 119 104 107 74 96 102 76 58 68 74 73 69 58 50 25 31 30 46 44 28
181 179 166 166 160 159 160 159 132 139 118 102 105 101 109 109 117 122 127 125 118 117 112 111 106 118 86 358 122 116 141 294 72 114 77 78 56 29 25 26 80 67 47
189 180 177 165 162 160 156 128 109 99 105 111 118 112 103 103 103 112 112 118 110 99 117 130 132 128 137 44 41 129 112 213 147 178 164 83 71 54 27 32 82 66 48
191 177 176 158 165 161 159 150 158 160 155 149 139 121 107 106 101 97 95 90 96 101 102 105 117 118 122 132 93 49 50 108 159 163 358 101 73 61 46 39 119 89 51
184 177 171 160 166 159 165 164 161 153 125 126 119 120 118 105 106 94 105 101 92 86 86 95 92 92 86 120 115 132 71 56 52 99 44 328 345 32 40 163 145 134 59
183 174 163 168 156 163 164 161 161 146 140 133 140 133 133 117 112 98 106 99 100 89 87 86 76 80 91 88 83 81 114 136 94 86 95 341 315 296 298 153 174 205 359